| time (UTC) | temp F | wind direction | speed MPH | gust MPH | rain 1hr in | rain 24hr in | rain mn in | humidity % | barometer mb |
| 20260502170515 | 70 | 265 | 0.0 | 3.0 | 0.00 | 0.05 | 0.00 | 38 | 1022.3 |
| 20260502163513 | 68 | 76 | 0.0 | 2.0 | 0.00 | 0.06 | 0.00 | 35 | 1022.6 |
| 20260502163012 | 67 | 317 | 0.0 | 2.0 | 0.00 | 0.06 | 0.00 | 35 | 1022.6 |
| 20260502162513 | 67 | 12 | 0.0 | 2.0 | 0.00 | 0.06 | 0.00 | 35 | 1022.6 |
| 20260502162013 | 67 | 65 | 0.0 | 2.0 | 0.00 | 0.06 | 0.00 | 35 | 1022.5 |
| 20260502161514 | 67 | 315 | 0.0 | 3.0 | 0.00 | 0.06 | 0.00 | 34 | 1022.6 |
| 20260502161014 | 67 | 44 | 0.0 | 3.0 | 0.00 | 0.06 | 0.00 | 34 | 1022.5 |
| 20260502160514 | 66 | 28 | 0.0 | 2.0 | 0.00 | 0.06 | 0.00 | 33 | 1022.5 |
| 20260502152007 | 64 | 323 | 0.0 | 3.0 | 0.00 | 0.06 | 0.00 | 26 | 1022.3 |
| 20260502151505 | 63 | 186 | 0.0 | 2.0 | 0.00 | 0.06 | 0.00 | 24 | 1022.3 |
| 20260502151004 | 63 | 180 | 0.0 | 2.0 | 0.00 | 0.06 | 0.00 | 22 | 1022.3 |
| 20260502150505 | 62 | 338 | 0.0 | 2.0 | 0.00 | 0.07 | 0.00 | 21 | 1022.4 |
| 20260502130500 | 51 | 331 | 0.0 | 2.0 | 0.00 | 0.26 | 0.00 | 1 | 1021.3 |
| 20260502123458 | 50 | 336 | 0.0 | 1.0 | 0.00 | 0.29 | 0.00 | 1 | 1021.0 |
| 20260502122957 | 50 | 336 | 0.0 | 1.0 | 0.00 | 0.29 | 0.00 | 1 | 1020.9 |
| 20260502122456 | 49 | 336 | 0.0 | 0.0 | 0.00 | 0.29 | 0.00 | 1 | 1020.8 |
| 20260502121954 | 49 | 336 | 0.0 | 0.0 | 0.00 | 0.29 | 0.00 | 1 | 1020.7 |
| 20260502121454 | 49 | 336 | 0.0 | 1.0 | 0.00 | 0.29 | 0.00 | 1 | 1020.6 |
| 20260502120952 | 49 | 336 | 0.0 | 1.0 | 0.00 | 0.30 | 0.00 | 1 | 1020.5 |
| 20260502120456 | 49 | 322 | 0.0 | 0.0 | 0.00 | 0.31 | 0.00 | 1 | 1020.3 |
| 20260502120452 | 49 | 322 | 0.0 | 0.0 | 0.00 | 0.30 | 0.00 | 1 | 1020.4 |
| 20260502115452 | 49 | 322 | 0.0 | 0.0 | 0.00 | 0.32 | 0.00 | 1 | 1020.2 |
| 20260502114952 | 49 | 322 | 0.0 | 1.0 | 0.00 | 0.32 | 0.00 | 1 | 1020.1 |
| 20260502114452 | 49 | 322 | 0.0 | 1.0 | 0.00 | 0.33 | 0.00 | 1 | 1020.1 |
| 20260502113952 | 49 | 322 | 0.0 | 0.0 | 0.00 | 0.34 | 0.00 | 1 | 1020.0 |
| 20260502113453 | 49 | 322 | 0.0 | 0.0 | 0.00 | 0.35 | 0.00 | 1 | 1019.9 |
| 20260502112952 | 49 | 322 | 0.0 | 0.0 | 0.00 | 0.38 | 0.00 | 1 | 1019.9 |
| 20260502112456 | 49 | 322 | 0.0 | 0.0 | 0.00 | 0.40 | 0.00 | 1 | 1019.6 |
| 20260502112452 | 49 | 322 | 0.0 | 0.0 | 0.00 | 0.39 | 0.00 | 1 | 1019.7 |
| 20260502111452 | 49 | 322 | 0.0 | 1.0 | 0.00 | 0.41 | 0.00 | 1 | 1019.6 |
| 20260502110952 | 49 | 322 | 0.0 | 1.0 | 0.00 | 0.42 | 0.00 | 1 | 1019.5 |
| 20260502110452 | 49 | 322 | 0.0 | 1.0 | 0.00 | 0.42 | 0.00 | 1 | 1019.4 |
| 20260502105950 | 49 | 322 | 0.0 | 0.0 | 0.00 | 0.43 | 0.00 | 1 | 1019.3 |
| 20260502105454 | 50 | 322 | 0.0 | 0.0 | 0.00 | 0.44 | 0.00 | 1 | 1019.2 |
| 20260502105450 | 50 | 322 | 0.0 | 0.0 | 0.00 | 0.43 | 0.00 | 1 | 1019.2 |
| 20260502104450 | 50 | 322 | 0.0 | 0.0 | 0.00 | 0.45 | 0.00 | 1 | 1019.1 |
| 20260502103950 | 50 | 322 | 0.0 | 0.0 | 0.00 | 0.45 | 0.00 | 1 | 1019.1 |
| 20260502103451 | 50 | 322 | 0.0 | 0.0 | 0.00 | 0.46 | 0.00 | 1 | 1019.0 |
| 20260502102948 | 50 | 322 | 0.0 | 0.0 | 0.00 | 0.46 | 0.00 | 1 | 1018.9 |
| 20260502102448 | 50 | 322 | 0.0 | 0.0 | 0.00 | 0.47 | 0.00 | 1 | 1018.9 |
| 20260502101946 | 50 | 322 | 0.0 | 0.0 | 0.00 | 0.47 | 0.00 | 1 | 1018.9 |
| 20260502101446 | 50 | 322 | 0.0 | 0.0 | 0.00 | 0.47 | 0.00 | 1 | 1019.0 |
| 20260502100944 | 50 | 322 | 0.0 | 1.0 | 0.00 | 0.48 | 0.00 | 1 | 1019.0 |
| 20260502100444 | 50 | 322 | 0.0 | 1.0 | 0.00 | 0.48 | 0.00 | 1 | 1019.0 |
| 20260502091440 | 51 | 322 | 0.0 | 1.0 | 0.00 | 0.48 | 0.00 | 1 | 1018.8 |
| 20260502091435 | 51 | 322 | 0.0 | 1.0 | 0.00 | 0.48 | 0.00 | 1 | 1018.7 |
| 20260502090436 | 51 | 322 | 0.0 | 0.0 | 0.00 | 0.48 | 0.00 | 1 | 1018.8 |
| 20260502070921 | 53 | 322 | 0.0 | 0.0 | 0.00 | 0.48 | 0.00 | 1 | 1018.7 |
| 20260502070419 | 53 | 322 | 0.0 | 1.0 | 0.00 | 0.48 | 0.00 | 1 | 1018.7 |
| 20260502065919 | 53 | 322 | 0.0 | 1.0 | 0.00 | 0.48 | 0.00 | 1 | 1018.7 |
| 20260502065424 | 53 | 322 | 0.0 | 1.0 | 0.00 | 0.48 | 0.00 | 1 | 1018.7 |
| 20260502065420 | 53 | 322 | 0.0 | 1.0 | 0.00 | 0.48 | 0.00 | 1 | 1018.6 |
| 20260502064416 | 53 | 322 | 0.0 | 0.0 | 0.00 | 0.48 | 0.00 | 1 | 1018.7 |
| 20260502063916 | 53 | 322 | 0.0 | 0.0 | 0.00 | 0.48 | 0.00 | 1 | 1018.8 |
| 20260502063418 | 53 | 322 | 0.0 | 0.0 | 0.00 | 0.48 | 0.00 | 1 | 1018.8 |
| 20260502063414 | 53 | 322 | 0.0 | 0.0 | 0.00 | 0.48 | 0.00 | 1 | 1018.8 |
| 20260502063019 | 53 | 322 | 0.0 | 0.0 | 0.00 | 0.48 | 0.00 | 1 | 1018.8 |
| 20260502062519 | 54 | 322 | 0.0 | 0.0 | 0.00 | 0.48 | 0.00 | 1 | 1018.7 |
| 20260502062019 | 54 | 322 | 0.0 | 0.0 | 0.00 | 0.48 | 0.00 | 1 | 1018.7 |
| 20260502060913 | 54 | 322 | 0.0 | 1.0 | 0.00 | 0.48 | 0.00 | 1 | 1018.8 |
| 20260502060412 | 54 | 322 | 0.0 | 1.0 | 0.00 | 0.48 | 0.00 | 1 | 1018.9 |
| 20260502055910 | 54 | 322 | 0.0 | 0.0 | 0.00 | 0.48 | 0.00 | 1 | 1018.8 |
| 20260502055413 | 54 | 322 | 0.0 | 1.0 | 0.00 | 0.48 | 0.00 | 1 | 1018.8 |
| 20260502055409 | 54 | 322 | 0.0 | 1.0 | 0.00 | 0.48 | 0.00 | 1 | 1018.8 |
| 20260502055014 | 54 | 322 | 0.0 | 1.0 | 0.00 | 0.48 | 0.00 | 1 | 1018.8 |
| 20260502053907 | 54 | 322 | 0.0 | 1.0 | 0.00 | 0.48 | 0.00 | 1 | 1018.7 |
| 20260502053406 | 54 | 322 | 0.0 | 1.0 | 0.00 | 0.48 | 0.00 | 1 | 1018.7 |
| 20260502052907 | 54 | 322 | 0.0 | 1.0 | 0.00 | 0.48 | 0.00 | 1 | 1018.7 |
| 20260502052409 | 54 | 322 | 0.0 | 0.0 | 0.00 | 0.48 | 0.00 | 1 | 1018.5 |
| 20260502052405 | 54 | 322 | 0.0 | 0.0 | 0.00 | 0.48 | 0.00 | 1 | 1018.6 |
| 20260502052010 | 54 | 322 | 0.0 | 0.0 | 0.00 | 0.48 | 0.00 | 1 | 1018.6 |
| 20260502051510 | 54 | 322 | 0.0 | 0.0 | 0.00 | 0.48 | 0.00 | 1 | 1018.6 |
| 20260502050405 | 54 | 322 | 0.0 | 0.0 | 0.00 | 0.48 | 0.00 | 1 | 1018.7 |
| 20260502045905 | 54 | 322 | 0.0 | 0.0 | 0.00 | 0.48 | 0.48 | 1 | 1018.7 |
| 20260502045404 | 54 | 322 | 0.0 | 0.0 | 0.00 | 0.48 | 0.48 | 1 | 1018.8 |
| 20260502044902 | 54 | 322 | 0.0 | 0.0 | 0.00 | 0.48 | 0.48 | 1 | 1018.8 |
| 20260502044404 | 54 | 322 | 0.0 | 0.0 | 0.00 | 0.48 | 0.48 | 1 | 1018.9 |
| 20260502043903 | 55 | 322 | 0.0 | 0.0 | 0.00 | 0.48 | 0.48 | 1 | 1018.8 |
| 20260502043407 | 55 | 322 | 0.0 | 0.0 | 0.00 | 0.48 | 0.48 | 1 | 1018.5 |
| 20260502043403 | 55 | 322 | 0.0 | 0.0 | 0.00 | 0.48 | 0.48 | 1 | 1018.6 |
| 20260502042402 | 55 | 322 | 0.0 | 0.0 | 0.00 | 0.48 | 0.48 | 1 | 1018.3 |
| 20260502041903 | 55 | 322 | 0.0 | 0.0 | 0.00 | 0.48 | 0.48 | 1 | 1018.3 |
| 20260502041407 | 56 | 322 | 0.0 | 1.0 | 0.00 | 0.48 | 0.48 | 1 | 1018.3 |
| 20260502041403 | 55 | 322 | 0.0 | 0.0 | 0.00 | 0.48 | 0.48 | 1 | 1018.2 |
| 20260502041006 | 55 | 322 | 0.0 | 0.0 | 0.00 | 0.48 | 0.48 | 1 | 1018.3 |
| 20260502035900 | 56 | 322 | 0.0 | 1.0 | 0.00 | 0.48 | 0.48 | 1 | 1018.3 |
| 20260502035359 | 56 | 322 | 0.0 | 2.0 | 0.00 | 0.48 | 0.48 | 1 | 1018.2 |
| 20260502034858 | 56 | 322 | 0.0 | 2.0 | 0.00 | 0.49 | 0.48 | 1 | 1018.2 |
| 20260502034358 | 56 | 312 | 0.0 | 2.0 | 0.00 | 0.49 | 0.48 | 1 | 1018.2 |
| 20260502033858 | 56 | 14 | 0.0 | 1.0 | 0.00 | 0.49 | 0.48 | 1 | 1018.2 |
| 20260502033403 | 56 | 355 | 0.0 | 2.0 | 0.00 | 0.49 | 0.48 | 1 | 1018.1 |
| 20260502033359 | 56 | 27 | 0.0 | 1.0 | 0.00 | 0.49 | 0.48 | 1 | 1018.2 |
| 20260502032359 | 56 | 37 | 0.0 | 2.0 | 0.00 | 0.49 | 0.48 | 1 | 1018.1 |
| 20260502031859 | 56 | 355 | 0.0 | 1.0 | 0.00 | 0.50 | 0.48 | 1 | 1018.1 |
| 20260502031359 | 56 | 355 | 0.0 | 1.0 | 0.00 | 0.50 | 0.48 | 1 | 1018.2 |
| 20260502030903 | 56 | 355 | 0.0 | 2.0 | 0.00 | 0.50 | 0.48 | 1 | 1018.1 |
| 20260502030859 | 56 | 355 | 0.0 | 1.0 | 0.00 | 0.50 | 0.48 | 1 | 1018.1 |
| 20260502025858 | 56 | 355 | 0.0 | 2.0 | 0.00 | 0.50 | 0.48 | 1 | 1017.9 |
| 20260502025401 | 56 | 329 | 0.0 | 2.0 | 0.00 | 0.50 | 0.48 | 1 | 1017.8 |
| 20260502025357 | 56 | 330 | 0.0 | 2.0 | 0.00 | 0.50 | 0.48 | 1 | 1017.8 |
| 20260502025002 | 56 | 311 | 0.0 | 1.0 | 0.00 | 0.50 | 0.48 | 1 | 1017.8 |
| 20260502023857 | 56 | 19 | 0.0 | 1.0 | 0.00 | 0.50 | 0.48 | 1 | 1017.8 |
| 20260502023357 | 57 | 19 | 0.0 | 1.0 | 0.00 | 0.50 | 0.48 | 1 | 1017.8 |
| 20260502022900 | 57 | 19 | 0.0 | 1.0 | 0.00 | 0.50 | 0.48 | 1 | 1017.6 |
| 20260502022856 | 57 | 19 | 0.0 | 1.0 | 0.00 | 0.50 | 0.48 | 1 | 1017.7 |
| 20260502021856 | 56 | 19 | 0.0 | 1.0 | 0.00 | 0.50 | 0.48 | 1 | 1017.5 |
| 20260502021356 | 56 | 19 | 0.0 | 1.0 | 0.00 | 0.50 | 0.48 | 1 | 1017.4 |
| 20260502020857 | 56 | 19 | 0.0 | 1.0 | 0.00 | 0.50 | 0.48 | 1 | 1017.2 |
| 20260502020357 | 56 | 19 | 0.0 | 1.0 | 0.00 | 0.50 | 0.48 | 1 | 1017.1 |
| 20260502015855 | 56 | 19 | 0.0 | 1.0 | 0.00 | 0.50 | 0.48 | 1 | 1017.0 |
| 20260502015353 | 57 | 19 | 0.0 | 1.0 | 0.00 | 0.50 | 0.48 | 1 | 1016.8 |
| 20260502014850 | 57 | 19 | 0.0 | 1.0 | 0.00 | 0.50 | 0.48 | 1 | 1016.7 |
| 20260502014349 | 57 | 19 | 0.0 | 1.0 | 0.00 | 0.50 | 0.48 | 1 | 1016.7 |
| 20260502013848 | 57 | 19 | 0.0 | 1.0 | 0.00 | 0.50 | 0.48 | 1 | 1016.7 |
| 20260502013349 | 57 | 19 | 0.0 | 1.0 | 0.00 | 0.50 | 0.48 | 1 | 1016.7 |
| 20260502012849 | 57 | 19 | 0.0 | 1.0 | 0.00 | 0.50 | 0.48 | 1 | 1016.6 |
| 20260502012348 | 57 | 19 | 0.0 | 1.0 | 0.00 | 0.50 | 0.48 | 1 | 1016.4 |
| 20260502011848 | 57 | 19 | 0.0 | 1.0 | 0.00 | 0.50 | 0.48 | 2 | 1016.4 |
| 20260502011348 | 57 | 55 | 0.0 | 3.0 | 0.00 | 0.50 | 0.48 | 1 | 1016.3 |
| 20260502010846 | 57 | 66 | 0.0 | 3.0 | 0.00 | 0.50 | 0.48 | 1 | 1016.2 |
| 20260502010347 | 57 | 49 | 0.0 | 2.0 | 0.00 | 0.50 | 0.48 | 1 | 1016.1 |
| 20260502005844 | 57 | 332 | 0.0 | 2.0 | 0.00 | 0.50 | 0.48 | 1 | 1016.1 |
| 20260502005344 | 57 | 313 | 1.0 | 4.0 | 0.00 | 0.50 | 0.48 | 1 | 1016.0 |
| 20260502004843 | 57 | 71 | 1.0 | 4.0 | 0.00 | 0.50 | 0.48 | 1 | 1015.7 |
| 20260502004344 | 57 | 36 | 1.0 | 2.0 | 0.00 | 0.50 | 0.48 | 1 | 1015.7 |
| 20260502003844 | 57 | 30 | 0.0 | 3.0 | 0.00 | 0.50 | 0.48 | 1 | 1015.6 |
| 20260502003349 | 57 | 51 | 1.0 | 2.0 | 0.00 | 0.50 | 0.48 | 1 | 1015.4 |
| 20260502003344 | 57 | 73 | 0.0 | 3.0 | 0.00 | 0.50 | 0.48 | 1 | 1015.5 |
| 20260502002344 | 57 | 77 | 0.0 | 3.0 | 0.00 | 0.50 | 0.48 | 1 | 1015.5 |
| 20260502001840 | 57 | 78 | 0.0 | 3.0 | 0.00 | 0.50 | 0.48 | 1 | 1015.5 |
| 20260502001340 | 57 | 61 | 1.0 | 3.0 | 0.00 | 0.50 | 0.48 | 1 | 1015.5 |
| 20260502000840 | 57 | 62 | 1.0 | 3.0 | 0.00 | 0.50 | 0.48 | 1 | 1015.5 |
| 20260502000342 | 57 | 63 | 2.0 | 4.0 | 0.00 | 0.50 | 0.48 | 1 | 1015.4 |
| 20260501235844 | 57 | 65 | 2.0 | 5.0 | 0.00 | 0.50 | 0.48 | 1 | 1015.2 |
| 20260501235840 | 57 | 74 | 2.0 | 4.0 | 0.00 | 0.50 | 0.48 | 1 | 1015.3 |
| 20260501234838 | 57 | 94 | 1.0 | 6.0 | 0.00 | 0.50 | 0.48 | 1 | 1015.1 |
| 20260501234338 | 57 | 69 | 2.0 | 6.0 | 0.00 | 0.50 | 0.48 | 1 | 1014.9 |
| 20260501233838 | 57 | 69 | 2.0 | 6.0 | 0.00 | 0.50 | 0.48 | 1 | 1014.8 |
| 20260501233341 | 57 | 47 | 2.0 | 6.0 | 0.00 | 0.50 | 0.48 | 1 | 1014.8 |
| 20260501233336 | 57 | 66 | 2.0 | 5.0 | 0.00 | 0.50 | 0.48 | 1 | 1014.7 |
| 20260501232336 | 57 | 62 | 2.0 | 4.0 | 0.00 | 0.50 | 0.48 | 1 | 1014.9 |
| 20260501231836 | 56 | 71 | 1.0 | 4.0 | 0.00 | 0.50 | 0.48 | 1 | 1014.9 |
| 20260501231336 | 56 | 64 | 1.0 | 4.0 | 0.00 | 0.50 | 0.48 | 1 | 1015.1 |
| 20260501230836 | 56 | 61 | 1.0 | 3.0 | 0.00 | 0.50 | 0.48 | 1 | 1015.1 |
| 20260501230335 | 56 | 22 | 1.0 | 4.0 | 0.00 | 0.50 | 0.48 | 1 | 1015.0 |
| 20260501225836 | 56 | 19 | 1.0 | 4.0 | 0.00 | 0.50 | 0.48 | 1 | 1014.7 |
| 20260501225334 | 56 | 27 | 1.0 | 4.0 | 0.00 | 0.50 | 0.48 | 1 | 1015.1 |
| 20260501224838 | 56 | 338 | 1.0 | 5.0 | 0.00 | 0.50 | 0.48 | 1 | 1015.1 |
| 20260501224834 | 56 | 80 | 1.0 | 4.0 | 0.00 | 0.50 | 0.48 | 1 | 1015.1 |
| 20260501223832 | 57 | 45 | 1.0 | 5.0 | 0.00 | 0.50 | 0.48 | 1 | 1015.0 |
| 20260501223332 | 57 | 320 | 1.0 | 3.0 | 0.00 | 0.50 | 0.48 | 1 | 1015.0 |
| 20260501222832 | 56 | 63 | 1.0 | 2.0 | 0.00 | 0.50 | 0.48 | 1 | 1014.8 |
| 20260501222330 | 56 | 5 | 1.0 | 3.0 | 0.00 | 0.50 | 0.48 | 1 | 1014.7 |
| 20260501221830 | 56 | 0 | 1.0 | 3.0 | 0.00 | 0.50 | 0.48 | 1 | 1014.8 |
| 20260501221334 | 56 | 61 | 1.0 | 4.0 | 0.00 | 0.50 | 0.48 | 1 | 1014.5 |
| 20260501221330 | 56 | 27 | 1.0 | 4.0 | 0.00 | 0.50 | 0.48 | 1 | 1014.6 |
| 20260501220935 | 56 | 355 | 1.0 | 4.0 | 0.00 | 0.50 | 0.48 | 1 | 1014.5 |
| 20260501215830 | 56 | 318 | 2.0 | 4.0 | 0.00 | 0.50 | 0.48 | 1 | 1014.2 |
| 20260501215329 | 56 | 24 | 2.0 | 9.0 | 0.00 | 0.50 | 0.48 | 1 | 1014.0 |
| 20260501214830 | 55 | 30 | 2.0 | 9.0 | 0.00 | 0.50 | 0.48 | 1 | 1013.9 |
| 20260501214330 | 56 | 17 | 2.0 | 6.0 | 0.00 | 0.50 | 0.48 | 1 | 1013.9 |
| 20260501213829 | 56 | 54 | 2.0 | 8.0 | 0.00 | 0.50 | 0.48 | 1 | 1013.7 |
| 20260501213328 | 56 | 63 | 2.0 | 8.0 | 0.00 | 0.50 | 0.48 | 1 | 1014.0 |
| 20260501212828 | 56 | 339 | 2.0 | 6.0 | 0.00 | 0.50 | 0.48 | 1 | 1014.0 |
| 20260501212327 | 56 | 28 | 2.0 | 6.0 | 0.00 | 0.50 | 0.48 | 1 | 1014.0 |
| 20260501211828 | 55 | 269 | 2.0 | 6.0 | 0.00 | 0.50 | 0.48 | 1 | 1013.9 |
| 20260501211329 | 55 | 58 | 2.0 | 7.0 | 0.00 | 0.50 | 0.48 | 1 | 1013.5 |
| 20260501210827 | 55 | 319 | 2.0 | 7.0 | 0.00 | 0.50 | 0.48 | 1 | 1013.5 |
| 20260501210327 | 56 | 355 | 2.0 | 7.0 | 0.00 | 0.50 | 0.48 | 1 | 1013.6 |
| 20260501205828 | 56 | 348 | 2.0 | 7.0 | 0.00 | 0.50 | 0.48 | 1 | 1013.7 |
| 20260501205326 | 56 | 41 | 1.0 | 5.0 | 0.00 | 0.50 | 0.48 | 1 | 1014.0 |
| 20260501204826 | 56 | 39 | 2.0 | 5.0 | 0.00 | 0.50 | 0.48 | 1 | 1014.0 |
| 20260501204326 | 56 | 15 | 2.0 | 5.0 | 0.00 | 0.50 | 0.48 | 1 | 1014.0 |
| 20260501203826 | 56 | 333 | 2.0 | 6.0 | 0.00 | 0.50 | 0.48 | 1 | 1013.9 |
| 20260501203330 | 55 | 41 | 2.0 | 5.0 | 0.00 | 0.50 | 0.48 | 1 | 1013.9 |
| 20260501203326 | 56 | 331 | 2.0 | 6.0 | 0.00 | 0.50 | 0.48 | 1 | 1013.7 |
| 20260501202325 | 56 | 349 | 2.0 | 5.0 | 0.01 | 0.50 | 0.48 | 1 | 1014.0 |
| 20260501201823 | 56 | 28 | 2.0 | 7.0 | 0.01 | 0.50 | 0.48 | 1 | 1014.2 |
| 20260501201323 | 56 | 322 | 2.0 | 7.0 | 0.02 | 0.50 | 0.48 | 1 | 1014.0 |
| 20260501200824 | 56 | 72 | 2.0 | 7.0 | 0.02 | 0.50 | 0.48 | 1 | 1013.9 |
| 20260501200324 | 56 | 5 | 1.0 | 7.0 | 0.03 | 0.50 | 0.48 | 1 | 1014.3 |
| 20260501195826 | 56 | 252 | 2.0 | 6.0 | 0.04 | 0.50 | 0.48 | 1 | 1013.6 |
| 20260501195822 | 56 | 43 | 2.0 | 6.0 | 0.04 | 0.50 | 0.48 | 1 | 1014.2 |
| 20260501194824 | 56 | 350 | 2.0 | 5.0 | 0.04 | 0.50 | 0.48 | 1 | 1013.3 |
| 20260501194820 | 56 | 37 | 1.0 | 6.0 | 0.05 | 0.50 | 0.48 | 1 | 1013.2 |
| 20260501193819 | 56 | 331 | 2.0 | 6.0 | 0.05 | 0.50 | 0.48 | 1 | 1013.2 |
| 20260501193320 | 56 | 75 | 2.0 | 5.0 | 0.05 | 0.50 | 0.48 | 1 | 1012.6 |
| 20260501192820 | 56 | 45 | 2.0 | 5.0 | 0.05 | 0.50 | 0.48 | 1 | 1013.0 |
| 20260501192319 | 56 | 19 | 2.0 | 4.0 | 0.04 | 0.50 | 0.47 | 1 | 1013.9 |
| 20260501191819 | 56 | 333 | 1.0 | 3.0 | 0.04 | 0.51 | 0.47 | 1 | 1014.3 |
| 20260501191319 | 56 | 355 | 1.0 | 3.0 | 0.03 | 0.50 | 0.46 | 1 | 1014.9 |
| 20260501190820 | 56 | 55 | 1.0 | 3.0 | 0.03 | 0.51 | 0.46 | 1 | 1015.0 |
| 20260501190320 | 56 | 13 | 1.0 | 2.0 | 0.02 | 0.51 | 0.45 | 1 | 1015.2 |
| 20260501185819 | 56 | 14 | 1.0 | 2.0 | 0.01 | 0.51 | 0.44 | 1 | 1015.5 |
| 20260501185317 | 56 | 313 | 1.0 | 2.0 | 0.01 | 0.51 | 0.44 | 1 | 1015.6 |
| 20260501184817 | 56 | 24 | 1.0 | 4.0 | 0.01 | 0.52 | 0.44 | 1 | 1015.7 |
| 20260501184318 | 56 | 315 | 1.0 | 4.0 | 0.00 | 0.51 | 0.43 | 1 | 1015.4 |
| 20260501183819 | 56 | 347 | 2.0 | 6.0 | 0.00 | 0.53 | 0.43 | 1 | 1015.0 |
| 20260501183815 | 56 | 337 | 2.0 | 6.0 | 0.00 | 0.52 | 0.43 | 1 | 1015.2 |
| 20260501182817 | 56 | 340 | 2.0 | 4.0 | 0.00 | 0.54 | 0.43 | 1 | 1014.6 |
| 20260501182813 | 56 | 355 | 2.0 | 4.0 | 0.00 | 0.53 | 0.43 | 1 | 1014.7 |
| 20260501181814 | 56 | 317 | 2.0 | 4.0 | 0.00 | 0.54 | 0.43 | 1 | 1014.5 |
| 20260501181314 | 56 | 5 | 1.0 | 4.0 | 0.00 | 0.54 | 0.43 | 1 | 1014.6 |
| 20260501180814 | 56 | 5 | 1.0 | 6.0 | 0.00 | 0.54 | 0.43 | 1 | 1014.4 |
| 20260501180313 | 56 | 28 | 2.0 | 6.0 | 0.00 | 0.54 | 0.43 | 1 | 1014.7 |
| 20260501175818 | 56 | 338 | 2.0 | 5.0 | 0.01 | 0.54 | 0.43 | 1 | 1014.2 |
| 20260501175813 | 56 | 16 | 2.0 | 5.0 | 0.01 | 0.54 | 0.43 | 1 | 1014.6 |
| 20260501174813 | 56 | 46 | 2.0 | 5.0 | 0.01 | 0.54 | 0.43 | 1 | 1014.1 |
| 20260501174313 | 56 | 67 | 2.0 | 6.0 | 0.01 | 0.54 | 0.43 | 1 | 1014.1 |
| 20260501173811 | 56 | 10 | 2.0 | 6.0 | 0.01 | 0.54 | 0.43 | 1 | 1014.0 |
| 20260501173311 | 56 | 59 | 2.0 | 6.0 | 0.01 | 0.54 | 0.43 | 1 | 1014.0 |
| 20260501172811 | 56 | 313 | 2.0 | 5.0 | 0.01 | 0.54 | 0.43 | 1 | 1014.1 |
| 20260501172309 | 56 | 308 | 2.0 | 6.0 | 0.01 | 0.54 | 0.43 | 1 | 1014.1 |
| 20260501171811 | 56 | 23 | 2.0 | 6.0 | 0.01 | 0.54 | 0.43 | 1 | 1014.0 |
| 20260501171807 | 56 | 5 | 2.0 | 6.0 | 0.01 | 0.54 | 0.43 | 1 | 1013.9 |